Weather History for KSLC - April, 2012

Change the Weather History Date:

Thursday, April 5, 2012

  Actual Average Record
Temperature  
Mean Temperature 43 °F 48 °F  
Max Temperature 52 °F 59 °F 82 °F (1959)
Min Temperature 34 °F 37 °F 15 °F (1955)
Degree Days  
Heating Degree Days 22 17  
Month to date heating degree days 85 87  
Since 1 July heating degree days 4558 5005  
Cooling Degree Days 0 0  
Month to date cooling degree days 0 0  
Year to date cooling degree days 3 0  
Moisture  
Dew Point 26 °F    
Average Humidity 48    
Maximum Humidity 65    
Minimum Humidity 30    
Precipitation  
Precipitation 0.00 in 0.07 in 0.76 in (1941)
Month to date precipitation 0.05 0.32  
Year to date precipitation 3.55 4.61  
Snow  
Snow 0.00 in 0.20 in 169.00 in (2006)
Month to date snowfall T 1.0  
Since 1 July snowfall 23.8 52.9  
Snow Depth 0.00 in    
Sea Level Pressure  
Sea Level Pressure 29.69 in    
Wind  
Wind Speed 8 mph (NW)    
Max Wind Speed 13 mph    
Max Gust Speed 20 mph    
Visibility 10 miles    
Events      
T = Trace of Precipitation, MM = Missing Value Source: NWS Daily Summary

Daily Weather History Graph

Daily Weather History Graph

Search for Another Location

Airport or City:

Trip Planner

Search our weather history database for the weather conditions in past years. The results will help you decide how hot, cold, wet, or windy it might be!

Date:

Astronomy

Apr. 05, 2012 Rise Set
Actual Time 7:03 AM MDT 7:57 PM MDT
Civil Twilight 6:36 AM MDT 8:25 PM MDT
Nautical Twilight 6:03 AM MDT 8:58 PM MDT
Astronomical Twilight 5:28 AM MDT 9:32 PM MDT
Moon 7:07 PM MDT (4/5) 6:02 AM MDT (4/5)
Length of Visible Light 13h 49m
Length of Day
12h 53m
Waxing Gibbous, 98% of the Moon is Illuminated
Apr 5
Waxing Gibbous
Apr 6
Full
Apr 13
Last Quarter
Apr 21
New
Apr 29
First Quarter

Hourly Weather History & Observations

Time (MDT) Temp. Windchill Dew Point Humidity Pressure Visibility Wind Dir Wind Speed Gust Speed Precip Events Conditions
12:53 AM 41.0 °F 38.0 °F 30.0 °F 65% 29.68 in 10.0 mi WSW 4.6 mph - N/A   Scattered Clouds
1:53 AM 39.9 °F 33.4 °F 30.0 °F 68% 29.70 in 10.0 mi North 10.4 mph - N/A   Partly Cloudy
2:53 AM 41.0 °F 35.8 °F 27.0 °F 57% 29.69 in 10.0 mi NNW 8.1 mph - N/A   Partly Cloudy
3:53 AM 39.0 °F - 24.1 °F 55% 29.71 in 10.0 mi Calm Calm - N/A   Partly Cloudy
4:53 AM 39.0 °F - 27.0 °F 62% 29.71 in 10.0 mi Calm Calm - N/A   Scattered Clouds
5:53 AM 36.0 °F 29.6 °F 24.1 °F 62% 29.73 in 10.0 mi North 8.1 mph - N/A   Partly Cloudy
6:53 AM 35.1 °F 28.6 °F 24.1 °F 64% 29.77 in 10.0 mi North 8.1 mph - N/A   Scattered Clouds
7:53 AM 37.9 °F 33.5 °F 23.0 °F 55% 29.78 in 10.0 mi North 5.8 mph - N/A   Mostly Cloudy
8:53 AM 42.1 °F 37.1 °F 24.1 °F 49% 29.79 in 10.0 mi North 8.1 mph - N/A   Mostly Cloudy
9:53 AM 46.0 °F 42.5 °F 23.0 °F 40% 29.79 in 10.0 mi NNW 6.9 mph - N/A   Mostly Cloudy
10:53 AM 46.9 °F - 21.9 °F 37% 29.80 in 10.0 mi WNW 8.1 mph - N/A   Mostly Cloudy
11:53 AM 48.9 °F - 23.0 °F 36% 29.78 in 10.0 mi NW 8.1 mph - N/A   Mostly Cloudy
12:53 PM 51.1 °F - 23.0 °F 33% 29.77 in 10.0 mi WNW 8.1 mph 16.1 mph N/A   Mostly Cloudy
1:53 PM 51.1 °F - 23.0 °F 33% 29.74 in 10.0 mi NNW 9.2 mph - N/A   Mostly Cloudy
2:53 PM 52.0 °F - 26.1 °F 37% 29.70 in 10.0 mi North 11.5 mph - N/A   Mostly Cloudy
3:53 PM 51.1 °F - 24.1 °F 35% 29.68 in 10.0 mi NW 9.2 mph - N/A   Mostly Cloudy
4:53 PM 51.1 °F - 25.0 °F 36% 29.65 in 10.0 mi NNW 6.9 mph - N/A   Mostly Cloudy
5:53 PM 50.0 °F - 26.1 °F 39% 29.64 in 10.0 mi West 9.2 mph - N/A   Mostly Cloudy
6:53 PM 48.9 °F - 28.0 °F 44% 29.61 in 10.0 mi West 8.1 mph - N/A   Overcast
7:53 PM 48.0 °F - 28.0 °F 46% 29.57 in 10.0 mi West 5.8 mph - N/A   Mostly Cloudy
8:53 PM 46.9 °F - 30.0 °F 52% 29.58 in 10.0 mi NW 9.2 mph - N/A   Mostly Cloudy
9:53 PM 46.0 °F 41.0 °F 30.0 °F 54% 29.57 in 10.0 mi West 10.4 mph - N/A   Mostly Cloudy
10:53 PM 46.9 °F - 32.0 °F 56% 29.61 in 10.0 mi West 15.0 mph 20.7 mph N/A   Mostly Cloudy
11:53 PM 45.0 °F 38.2 °F 25.0 °F 46% 29.63 in 10.0 mi West 15.0 mph - N/A   Mostly Cloudy